Time,TemperatureF,DewpointF,PressureIn,WindDirection,WindDirectionDegrees,WindSpeedMPH,WindSpeedGustMPH,Humidity,HourlyPrecipIn,Conditions,Clouds,dailyrainin,SolarRadiationWatts/m^2,SoftwareType,DateUTC
2013-01-16 00:04:00,23.4,12.6,30.00,WSW,248,7.1,8.1,63,0.00,CLR,SCT,0.00,0.0,WeatherDisplay:10.37,2013-01-16 06:04:00,
2013-01-16 00:09:00,23.4,12.6,30.00,WSW,248,6.0,7.6,63,0.00,CLR,SCT,0.00,0.0,WeatherDisplay:10.37,2013-01-16 06:09:00,
2013-01-16 00:14:00,23.4,12.6,30.00,SSW,202,6.4,6.9,63,0.00,CLR,SCT,0.00,0.0,WeatherDisplay:10.37,2013-01-16 06:14:00,
2013-01-16 00:19:00,23.4,12.6,30.00,WSW,248,6.4,6.9,63,0.00,CLR,SCT,0.00,0.0,WeatherDisplay:10.37,2013-01-16 06:19:00,
2013-01-16 00:24:00,23.4,12.6,29.97,SSW,202,5.9,7.4,63,0.00,CLR,SCT,0.00,0.0,WeatherDisplay:10.37,2013-01-16 06:24:00,
2013-01-16 00:29:00,23.4,12.6,29.97,WSW,248,5.4,8.1,63,0.00,CLR,SCT,0.00,0.0,WeatherDisplay:10.37,2013-01-16 06:29:00,
2013-01-16 00:34:00,23.5,12.8,29.97,WSW,248,5.4,7.6,63,0.00,CLR,SCT,0.00,0.0,WeatherDisplay:10.37,2013-01-16 06:34:00,
2013-01-16 00:39:00,23.7,12.6,30.00,SSW,202,6.0,10.4,62,0.00,CLR,SCT,0.00,0.0,WeatherDisplay:10.37,2013-01-16 06:39:00,
2013-01-16 00:44:00,23.9,12.4,30.00,WSW,248,6.7,8.1,61,0.00,CLR,SCT,0.00,0.0,WeatherDisplay:10.37,2013-01-16 06:44:00,
2013-01-16 00:49:00,24.1,12.6,30.00,WSW,248,7.6,10.4,61,0.00,CLR,SCT,0.00,0.0,WeatherDisplay:10.37,2013-01-16 06:49:00,
2013-01-16 00:55:00,23.7,12.2,30.00,WSW,248,4.9,8.1,61,0.00,CLR,SCT,0.00,0.0,WeatherDisplay:10.37,2013-01-16 06:55:00,
2013-01-16 01:00:00,23.5,12.1,30.00,WSW,248,6.2,8.1,61,0.00,CLR,SCT,0.00,0.0,WeatherDisplay:10.37,2013-01-16 07:00:00,
2013-01-16 01:05:00,23.4,12.2,30.00,SW,225,5.6,8.5,62,0.00,CLR,SCT,0.00,0.0,WeatherDisplay:10.37,2013-01-16 07:05:00,
2013-01-16 01:10:00,23.2,12.4,30.00,WSW,248,5.6,8.1,63,0.00,CLR,SCT,0.00,0.0,WeatherDisplay:10.37,2013-01-16 07:10:00,
2013-01-16 01:15:00,23.4,12.2,30.00,SSW,202,6.9,8.7,62,0.00,CLR,SCT,0.00,0.0,WeatherDisplay:10.37,2013-01-16 07:15:00,
2013-01-16 01:20:00,23.5,12.4,30.00,WSW,248,6.9,9.2,62,0.00,CLR,SCT,0.00,0.0,WeatherDisplay:10.37,2013-01-16 07:20:00,
2013-01-16 01:25:00,23.9,12.4,29.97,WSW,248,8.5,10.9,61,0.00,CLR,SCT,0.00,0.0,WeatherDisplay:10.37,2013-01-16 07:25:00,
2013-01-16 01:30:00,23.9,12.0,29.97,WSW,248,9.0,10.4,60,0.00,CLR,SCT,0.00,0.0,WeatherDisplay:10.37,2013-01-16 07:30:00,
2013-01-16 01:35:00,23.5,12.1,29.97,WSW,248,7.4,8.1,61,0.00,CLR,SCT,0.00,0.0,WeatherDisplay:10.37,2013-01-16 07:35:00,
2013-01-16 01:40:00,23.5,12.1,29.97,SW,225,6.4,8.1,61,0.00,CLR,SCT,0.00,0.0,WeatherDisplay:10.37,2013-01-16 07:40:00,
2013-01-16 01:45:00,23.5,12.1,29.97,SSW,202,7.4,8.7,61,0.00,CLR,SCT,0.00,0.0,WeatherDisplay:10.37,2013-01-16 07:45:00,
2013-01-16 01:50:00,23.5,12.1,29.97,WSW,248,6.9,12.7,61,0.00,CLR,SCT,0.00,0.0,WeatherDisplay:10.37,2013-01-16 07:50:00,
2013-01-16 01:55:00,23.9,12.0,29.94,WSW,248,9.2,9.2,60,0.00,CLR,SCT,0.00,0.0,WeatherDisplay:10.37,2013-01-16 07:55:00,
2013-01-16 02:00:00,24.1,11.8,29.94,WSW,248,7.6,9.2,59,0.00,CLR,SCT,0.00,0.0,WeatherDisplay:10.37,2013-01-16 08:00:00,
2013-01-16 02:06:00,24.3,11.6,29.94,WSW,248,7.4,8.5,58,0.00,CLR,SCT,0.00,0.0,WeatherDisplay:10.37,2013-01-16 08:06:00,
2013-01-16 02:11:00,24.4,11.8,29.97,WSW,248,9.2,12.7,58,0.00,CLR,SCT,0.00,0.0,WeatherDisplay:10.37,2013-01-16 08:11:00,
2013-01-16 02:16:00,24.3,11.2,29.97,WSW,248,7.6,9.2,57,0.00,CLR,SCT,0.00,0.0,WeatherDisplay:10.37,2013-01-16 08:16:00,
2013-01-16 02:21:00,24.3,11.2,29.97,SSW,202,8.5,10.4,57,0.00,CLR,SCT,0.00,0.0,WeatherDisplay:10.37,2013-01-16 08:21:00,
2013-01-16 02:26:00,24.3,11.2,29.97,WSW,248,8.1,9.2,57,0.00,CLR,SCT,0.00,0.0,WeatherDisplay:10.37,2013-01-16 08:26:00,
2013-01-16 02:31:00,24.3,10.8,29.97,WSW,248,9.0,10.9,56,0.00,CLR,SCT,0.00,0.0,WeatherDisplay:10.37,2013-01-16 08:31:00,
2013-01-16 02:36:00,24.1,11.0,29.97,WSW,248,8.5,12.7,57,0.00,CLR,SCT,0.00,0.0,WeatherDisplay:10.37,2013-01-16 08:36:00,
2013-01-16 02:41:00,24.1,11.0,29.97,SSW,202,8.7,10.4,57,0.00,CLR,SCT,0.00,0.0,WeatherDisplay:10.37,2013-01-16 08:41:00,
2013-01-16 02:46:00,24.1,10.6,29.97,WSW,248,9.4,12.3,56,0.00,CLR,SCT,0.00,0.0,WeatherDisplay:10.37,2013-01-16 08:46:00,
2013-01-16 02:51:00,24.1,11.0,29.97,WSW,248,9.4,10.5,57,0.00,CLR,SCT,0.00,0.0,WeatherDisplay:10.37,2013-01-16 08:51:00,
2013-01-16 02:57:00,23.9,10.5,29.94,WSW,248,7.4,10.0,56,0.00,CLR,SCT,0.00,0.0,WeatherDisplay:10.37,2013-01-16 08:57:00,
2013-01-16 03:02:00,23.9,10.5,29.94,SSW,202,8.7,10.4,56,0.00,CLR,SCT,0.00,0.0,WeatherDisplay:10.37,2013-01-16 09:02:00,
2013-01-16 03:07:00,23.9,10.5,29.94,WSW,248,9.2,11.5,56,0.00,CLR,SCT,0.00,0.0,WeatherDisplay:10.37,2013-01-16 09:07:00,
2013-01-16 03:12:00,23.9,10.5,29.94,WSW,248,7.1,8.7,56,0.00,CLR,SCT,0.00,0.0,WeatherDisplay:10.37,2013-01-16 09:12:00,
2013-01-16 03:17:00,24.1,10.2,29.94,SSW,202,7.8,9.2,55,0.00,CLR,SCT,0.00,0.0,WeatherDisplay:10.37,2013-01-16 09:17:00,
2013-01-16 03:22:00,24.1,10.2,29.94,WSW,248,6.9,9.2,55,0.00,CLR,SCT,0.00,0.0,WeatherDisplay:10.37,2013-01-16 09:22:00,
2013-01-16 03:27:00,23.9,10.1,29.94,WSW,248,5.6,6.9,55,0.00,CLR,SCT,0.00,0.0,WeatherDisplay:10.37,2013-01-16 09:27:00,
2013-01-16 03:32:00,24.3,10.0,29.94,WSW,248,6.7,8.1,54,0.00,CLR,SCT,0.00,0.0,WeatherDisplay:10.37,2013-01-16 09:32:00,
2013-01-16 03:37:00,24.4,10.2,29.94,WSW,248,8.7,10.4,54,0.00,CLR,SCT,0.00,0.0,WeatherDisplay:10.37,2013-01-16 09:37:00,
2013-01-16 03:42:00,25.0,9.8,29.94,WSW,248,8.5,12.7,52,0.00,CLR,SCT,0.00,0.0,WeatherDisplay:10.37,2013-01-16 09:42:00,
2013-01-16 03:47:00,25.2,10.0,29.94,SSW,202,7.4,10.4,52,0.00,CLR,SCT,0.00,0.0,WeatherDisplay:10.37,2013-01-16 09:47:00,
2013-01-16 03:52:00,25.3,10.1,29.94,WSW,248,9.7,11.5,52,0.00,CLR,SCT,0.00,0.0,WeatherDisplay:10.37,2013-01-16 09:52:00,
2013-01-16 03:57:00,25.3,10.1,29.94,SSW,202,9.2,13.8,52,0.00,CLR,SCT,0.00,0.0,WeatherDisplay:10.37,2013-01-16 09:57:00,
2013-01-16 04:02:00,25.2,9.5,29.94,WSW,248,9.4,11.5,51,0.00,CLR,SCT,0.00,0.0,WeatherDisplay:10.37,2013-01-16 10:02:00,
2013-01-16 04:08:00,25.0,9.8,29.94,WSW,248,9.0,11.5,52,0.00,CLR,SCT,0.00,0.0,WeatherDisplay:10.37,2013-01-16 10:08:00,
2013-01-16 04:13:00,24.8,10.1,29.94,WNW,292,7.1,9.2,53,0.00,CLR,SCT,0.00,0.0,WeatherDisplay:10.37,2013-01-16 10:13:00,
2013-01-16 04:18:00,24.8,10.1,29.94,WNW,292,9.2,12.7,53,0.00,CLR,SCT,0.00,0.0,WeatherDisplay:10.37,2013-01-16 10:18:00,
2013-01-16 04:23:00,24.6,9.9,29.94,West,270,8.5,12.3,53,0.00,CLR,SCT,0.00,0.0,WeatherDisplay:10.37,2013-01-16 10:23:00,
2013-01-16 04:28:00,24.6,10.3,29.94,WSW,248,8.5,10.4,54,0.00,CLR,SCT,0.00,0.0,WeatherDisplay:10.37,2013-01-16 10:28:00,
2013-01-16 04:33:00,24.4,10.2,29.94,WSW,248,7.6,10.5,54,0.00,CLR,SCT,0.00,0.0,WeatherDisplay:10.37,2013-01-16 10:33:00,
2013-01-16 04:38:00,24.6,10.3,29.94,West,270,8.7,10.0,54,0.00,CLR,SCT,0.00,0.0,WeatherDisplay:10.37,2013-01-16 10:38:00,
2013-01-16 04:43:00,24.6,10.3,29.94,WSW,248,7.6,11.5,54,0.00,CLR,SCT,0.00,0.0,WeatherDisplay:10.37,2013-01-16 10:43:00,
2013-01-16 04:49:00,24.8,10.5,29.94,SSW,202,6.4,7.8,54,0.00,CLR,SCT,0.00,0.0,WeatherDisplay:10.37,2013-01-16 10:49:00,
2013-01-16 04:54:00,24.8,10.9,29.91,West,270,4.7,6.9,55,0.00,CLR,SCT,0.00,0.0,WeatherDisplay:10.37,2013-01-16 10:54:00,
2013-01-16 04:59:00,24.8,10.9,29.91,WSW,248,5.9,6.9,55,0.00,CLR,SCT,0.00,0.0,WeatherDisplay:10.37,2013-01-16 10:59:00,
2013-01-16 05:04:00,24.8,11.3,29.91,SSW,202,5.6,8.5,56,0.00,CLR,SCT,0.00,0.0,WeatherDisplay:10.37,2013-01-16 11:04:00,
2013-01-16 05:09:00,24.8,11.3,29.88,WSW,248,6.4,9.4,56,0.00,CLR,SCT,0.00,0.0,WeatherDisplay:10.37,2013-01-16 11:09:00,
2013-01-16 05:14:00,24.8,11.3,29.88,SSW,202,6.0,9.2,56,0.00,CLR,SCT,0.00,0.0,WeatherDisplay:10.37,2013-01-16 11:14:00,
2013-01-16 05:19:00,24.8,10.9,29.88,WSW,248,4.9,6.9,55,0.00,CLR,SCT,0.00,0.0,WeatherDisplay:10.37,2013-01-16 11:19:00,
2013-01-16 05:24:00,25.0,11.1,29.88,WSW,248,6.7,6.7,55,0.00,CLR,SCT,0.00,0.0,WeatherDisplay:10.37,2013-01-16 11:24:00,
2013-01-16 05:29:00,25.2,11.6,29.88,WSW,248,4.0,5.8,56,0.00,CLR,SCT,0.00,0.0,WeatherDisplay:10.37,2013-01-16 11:29:00,
2013-01-16 05:34:00,25.2,11.6,29.88,West,270,4.5,7.4,56,0.00,CLR,SCT,0.00,0.0,WeatherDisplay:10.37,2013-01-16 11:34:00,
2013-01-16 05:39:00,25.2,11.6,29.85,WSW,248,5.4,5.8,56,0.00,CLR,SCT,0.00,0.0,WeatherDisplay:10.37,2013-01-16 11:39:00,
2013-01-16 05:44:00,25.3,11.8,29.85,WSW,248,3.8,5.8,56,0.00,CLR,SCT,0.00,0.0,WeatherDisplay:10.37,2013-01-16 11:44:00,
2013-01-16 05:49:00,25.3,12.2,29.85,WNW,292,4.9,6.2,57,0.00,CLR,SCT,0.00,0.0,WeatherDisplay:10.37,2013-01-16 11:49:00,
2013-01-16 05:54:00,25.3,12.2,29.88,SW,225,6.4,6.9,57,0.00,CLR,SCT,0.00,0.0,WeatherDisplay:10.37,2013-01-16 11:54:00,
2013-01-16 05:59:00,25.3,12.6,29.88,SSW,202,6.0,6.9,58,0.00,CLR,SCT,0.00,0.0,WeatherDisplay:10.37,2013-01-16 11:59:00,
2013-01-16 06:05:00,25.3,12.6,29.88,West,270,4.9,8.1,58,0.00,CLR,SCT,0.00,0.0,WeatherDisplay:10.37,2013-01-16 12:05:00,
2013-01-16 06:10:00,25.3,12.6,29.88,WSW,248,6.9,8.1,58,0.00,CLR,SCT,0.00,0.0,WeatherDisplay:10.37,2013-01-16 12:10:00,
2013-01-16 06:15:00,25.5,12.8,29.88,WSW,248,7.8,9.2,58,0.00,CLR,SCT,0.00,0.0,WeatherDisplay:10.37,2013-01-16 12:15:00,
2013-01-16 06:20:00,25.5,13.2,29.88,WSW,248,6.0,8.5,59,0.00,CLR,SCT,0.00,0.0,WeatherDisplay:10.37,2013-01-16 12:20:00,
2013-01-16 06:26:00,25.7,13.3,29.88,WSW,248,6.2,6.9,59,0.00,CLR,SCT,0.00,0.0,WeatherDisplay:10.37,2013-01-16 12:26:00,
2013-01-16 06:31:00,25.7,13.3,29.88,WSW,248,6.0,9.2,59,0.00,CLR,SCT,0.00,0.0,WeatherDisplay:10.37,2013-01-16 12:31:00,
2013-01-16 06:36:00,25.9,13.5,29.88,WSW,248,6.0,8.1,59,0.00,CLR,SCT,0.00,0.0,WeatherDisplay:10.37,2013-01-16 12:36:00,
2013-01-16 06:41:00,25.9,13.9,29.88,WSW,248,6.2,8.1,60,0.00,CLR,SCT,0.00,0.0,WeatherDisplay:10.37,2013-01-16 12:41:00,
2013-01-16 06:46:00,26.1,14.1,29.88,WSW,248,6.2,8.1,60,0.00,CLR,SCT,0.00,0.0,WeatherDisplay:10.37,2013-01-16 12:46:00,
2013-01-16 06:51:00,26.1,14.1,29.88,WSW,248,7.1,9.2,60,0.00,CLR,SCT,0.00,0.0,WeatherDisplay:10.37,2013-01-16 12:51:00,
2013-01-16 06:56:00,26.2,14.2,29.85,SW,225,6.2,8.1,60,0.00,CLR,SCT,0.00,0.0,WeatherDisplay:10.37,2013-01-16 12:56:00,
2013-01-16 07:01:00,26.4,14.4,29.85,WSW,248,6.4,6.9,60,0.00,CLR,SCT,0.00,0.0,WeatherDisplay:10.37,2013-01-16 13:01:00,
2013-01-16 07:06:00,26.6,14.9,29.85,WNW,292,6.0,8.1,61,0.00,CLR,SCT,0.00,0.0,WeatherDisplay:10.37,2013-01-16 13:06:00,
2013-01-16 07:11:00,26.8,15.1,29.88,WSW,248,5.9,8.1,61,0.00,CLR,SCT,0.00,0.0,WeatherDisplay:10.37,2013-01-16 13:11:00,
2013-01-16 07:16:00,27.0,15.3,29.88,WSW,248,4.7,6.9,61,0.00,CLR,SCT,0.00,0.0,WeatherDisplay:10.37,2013-01-16 13:16:00,
2013-01-16 07:21:00,27.3,15.6,29.88,SSW,202,5.4,8.1,61,0.00,OVC,SCT,0.00,0.0,WeatherDisplay:10.37,2013-01-16 13:21:00,
2013-01-16 07:26:00,27.5,15.8,29.91,West,270,6.0,8.1,61,0.00,OVC,SCT,0.00,0.0,WeatherDisplay:10.37,2013-01-16 13:26:00,
2013-01-16 07:31:00,27.7,16.0,29.91,WSW,248,6.4,8.1,61,0.00,OVC,SCT,0.00,0.0,WeatherDisplay:10.37,2013-01-16 13:31:00,
2013-01-16 07:36:00,27.9,16.5,29.91,West,270,5.9,9.8,62,0.00,OVC,SCT,0.00,0.0,WeatherDisplay:10.37,2013-01-16 13:36:00,
2013-01-16 07:41:00,27.7,16.0,29.91,West,270,6.0,8.1,61,0.00,OVC,SCT,0.00,0.0,WeatherDisplay:10.37,2013-01-16 13:41:00,
2013-01-16 07:46:00,27.7,16.3,29.91,SW,225,5.9,6.9,62,0.00,OVC,SCT,0.00,0.0,WeatherDisplay:10.37,2013-01-16 13:46:00,
2013-01-16 07:52:00,27.7,16.3,29.94,WSW,248,4.0,6.9,62,0.00,OVC,SCT,0.00,0.0,WeatherDisplay:10.37,2013-01-16 13:52:00,
2013-01-16 07:57:00,27.9,16.5,29.94,West,270,6.7,8.1,62,0.00,OVC,SCT,0.00,0.0,WeatherDisplay:10.37,2013-01-16 13:57:00,
2013-01-16 08:02:00,28.0,17.1,29.94,West,270,6.0,7.6,63,0.00,OVC,SCT,0.00,0.0,WeatherDisplay:10.37,2013-01-16 14:02:00,
2013-01-16 08:07:00,28.2,17.6,29.94,WSW,248,5.6,6.9,64,0.00,OVC,SCT,0.00,0.0,WeatherDisplay:10.37,2013-01-16 14:07:00,
2013-01-16 08:12:00,28.2,17.2,29.94,WSW,248,5.6,6.2,63,0.00,OVC,SCT,0.00,0.0,WeatherDisplay:10.37,2013-01-16 14:12:00,
2013-01-16 08:17:00,28.2,17.2,29.94,WSW,248,5.4,6.9,63,0.00,OVC,SCT,0.00,0.0,WeatherDisplay:10.37,2013-01-16 14:17:00,
2013-01-16 08:22:00,28.0,17.4,29.94,WSW,248,6.7,8.1,64,0.00,OVC,SCT,0.00,0.0,WeatherDisplay:10.37,2013-01-16 14:22:00,
2013-01-16 08:27:00,28.2,18.0,29.94,WSW,248,5.9,6.9,65,0.00,OVC,SCT,0.00,0.0,WeatherDisplay:10.37,2013-01-16 14:27:00,
2013-01-16 08:32:00,28.8,18.1,29.94,WSW,248,6.2,9.2,64,0.00,OVC,SCT,0.00,0.0,WeatherDisplay:10.37,2013-01-16 14:32:00,
2013-01-16 08:37:00,28.8,18.1,29.94,WSW,248,4.7,6.9,64,0.00,OVC,SCT,0.00,0.0,WeatherDisplay:10.37,2013-01-16 14:37:00,
2013-01-16 08:42:00,29.3,18.6,29.94,West,270,5.6,5.8,64,0.00,OVC,SCT,0.00,0.0,WeatherDisplay:10.37,2013-01-16 14:42:00,
2013-01-16 08:48:00,29.5,18.8,29.94,West,270,4.5,6.4,64,0.00,OVC,SCT,0.00,0.0,WeatherDisplay:10.37,2013-01-16 14:48:00,
2013-01-16 08:53:00,30.2,19.5,29.94,WSW,248,6.4,8.1,64,0.00,OVC,SCT,0.00,0.0,WeatherDisplay:10.37,2013-01-16 14:53:00,
2013-01-16 08:58:00,30.6,19.5,29.94,WSW,248,6.9,8.1,63,0.00,OVC,SCT,0.00,0.0,WeatherDisplay:10.37,2013-01-16 14:58:00,
2013-01-16 09:03:00,31.1,20.0,29.94,WSW,248,6.2,8.5,63,0.00,OVC,SCT,0.00,0.0,WeatherDisplay:10.37,2013-01-16 15:03:00,
2013-01-16 09:08:00,31.5,19.9,29.94,West,270,6.9,8.1,62,0.00,OVC,SCT,0.00,0.0,WeatherDisplay:10.37,2013-01-16 15:08:00,
2013-01-16 09:13:00,32.0,20.4,29.94,WSW,248,6.7,9.2,62,0.00,OVC,SCT,0.00,0.0,WeatherDisplay:10.37,2013-01-16 15:13:00,
2013-01-16 09:18:00,32.4,20.4,29.94,WSW,248,6.7,8.1,61,0.00,OVC,SCT,0.00,0.0,WeatherDisplay:10.37,2013-01-16 15:18:00,
2013-01-16 09:23:00,32.7,20.4,29.91,WNW,292,5.4,5.9,60,0.00,OVC,SCT,0.00,0.0,WeatherDisplay:10.37,2013-01-16 15:23:00,
2013-01-16 09:28:00,33.1,20.7,29.91,WNW,292,4.9,6.2,60,0.00,OVC,SCT,0.00,0.0,WeatherDisplay:10.37,2013-01-16 15:28:00,
2013-01-16 09:33:00,33.8,21.0,29.91,West,270,4.7,5.9,59,0.00,OVC,SCT,0.00,0.0,WeatherDisplay:10.37,2013-01-16 15:33:00,
2013-01-16 09:38:00,34.2,20.9,29.94,WSW,248,5.6,8.5,58,0.00,OVC,SCT,0.00,0.0,WeatherDisplay:10.37,2013-01-16 15:38:00,
2013-01-16 09:43:00,34.7,21.0,29.94,WSW,248,5.6,7.4,57,0.00,OVC,SCT,0.00,0.0,WeatherDisplay:10.37,2013-01-16 15:43:00,
2013-01-16 09:48:00,35.6,21.9,29.94,WSW,248,5.6,8.1,57,0.00,OVC,SCT,0.00,0.0,WeatherDisplay:10.37,2013-01-16 15:48:00,
2013-01-16 09:53:00,36.0,21.8,29.94,West,270,4.7,5.8,56,0.00,OVC,SCT,0.00,0.0,WeatherDisplay:10.37,2013-01-16 15:53:00,
2013-01-16 09:58:00,36.7,22.0,29.94,WSW,248,3.6,4.6,55,0.00,OVC,SCT,0.00,0.0,WeatherDisplay:10.37,2013-01-16 15:58:00,
2013-01-16 10:03:00,37.0,22.4,29.94,WSW,248,4.9,6.9,55,0.00,OVC,SCT,0.00,0.0,WeatherDisplay:10.37,2013-01-16 16:03:00,
2013-01-16 10:08:00,37.2,22.1,29.94,WSW,248,4.3,6.9,54,0.00,OVC,SCT,0.00,0.0,WeatherDisplay:10.37,2013-01-16 16:08:00,
2013-01-16 10:13:00,37.9,22.3,29.94,WSW,248,6.0,6.4,53,0.00,OVC,SCT,0.00,0.0,WeatherDisplay:10.37,2013-01-16 16:13:00,
2013-01-16 10:18:00,38.5,22.8,29.94,West,270,3.8,7.6,53,0.00,OVC,SCT,0.00,0.0,WeatherDisplay:10.37,2013-01-16 16:18:00,
2013-01-16 10:23:00,38.8,22.7,29.94,WNW,292,5.9,8.1,52,0.00,OVC,SCT,0.00,0.0,WeatherDisplay:10.37,2013-01-16 16:23:00,
2013-01-16 10:28:00,39.4,22.7,29.94,WNW,292,4.5,5.8,51,0.00,OVC,SCT,0.00,0.0,WeatherDisplay:10.37,2013-01-16 16:28:00,
2013-01-16 10:33:00,39.9,23.2,29.94,WNW,292,5.4,6.9,51,0.00,OVC,SCT,0.00,0.0,WeatherDisplay:10.37,2013-01-16 16:33:00,
2013-01-16 10:38:00,40.5,23.7,29.94,WNW,292,3.3,6.9,51,0.00,OVC,SCT,0.00,0.0,WeatherDisplay:10.37,2013-01-16 16:38:00,
2013-01-16 10:44:00,41.4,24.1,29.94,NNW,338,3.8,7.1,50,0.00,OVC,SCT,0.00,0.0,WeatherDisplay:10.37,2013-01-16 16:44:00,
2013-01-16 10:49:00,42.1,24.3,29.94,WNW,292,4.5,8.1,49,0.00,OVC,SCT,0.00,0.0,WeatherDisplay:10.37,2013-01-16 16:49:00,
2013-01-16 10:54:00,42.4,24.6,29.94,West,270,4.5,6.9,49,0.00,OVC,SCT,0.00,0.0,WeatherDisplay:10.37,2013-01-16 16:54:00,
2013-01-16 10:59:00,43.0,24.1,29.94,West,270,6.0,6.0,47,0.00,OVC,SCT,0.00,0.0,WeatherDisplay:10.37,2013-01-16 16:59:00,
2013-01-16 11:04:00,43.7,24.8,29.94,NNW,338,3.6,5.8,47,0.00,OVC,SCT,0.00,0.0,WeatherDisplay:10.37,2013-01-16 17:04:00,
2013-01-16 11:09:00,44.2,24.7,29.94,WSW,248,3.1,4.0,46,0.00,OVC,SCT,0.00,0.0,WeatherDisplay:10.37,2013-01-16 17:09:00,
2013-01-16 11:14:00,45.0,24.9,29.94,NNW,338,3.3,5.9,45,0.00,OVC,SCT,0.00,0.0,WeatherDisplay:10.37,2013-01-16 17:14:00,
2013-01-16 11:19:00,45.3,24.7,29.94,NNW,338,3.1,4.6,44,0.00,OVC,SCT,0.00,0.0,WeatherDisplay:10.37,2013-01-16 17:19:00,
2013-01-16 11:24:00,45.9,24.6,29.94,WSW,248,3.1,4.6,43,0.00,OVC,SCT,0.00,0.0,WeatherDisplay:10.37,2013-01-16 17:24:00,
2013-01-16 11:29:00,46.4,25.1,29.94,NNE,22,4.5,9.2,43,0.00,OVC,SCT,0.00,100.0,WeatherDisplay:10.37,2013-01-16 17:29:00,
2013-01-16 11:35:00,46.9,25.0,29.94,NNW,338,4.5,5.8,42,0.00,OVC,SCT,0.00,0.0,WeatherDisplay:10.37,2013-01-16 17:35:00,
2013-01-16 11:40:00,46.9,24.4,29.94,West,270,5.4,8.1,41,0.00,OVC,SCT,0.00,0.0,WeatherDisplay:10.37,2013-01-16 17:40:00,
2013-01-16 11:45:00,46.9,24.4,29.94,WNW,299,5.0,10.0,41,0.00,OVC,SCT,0.00,0.0,WeatherDisplay:10.37,2013-01-16 17:45:00,
2013-01-16 11:50:00,47.1,24.6,29.94,WNW,292,6.0,8.1,41,0.00,OVC,SCT,0.00,0.0,WeatherDisplay:10.37,2013-01-16 17:50:00,
2013-01-16 11:55:00,47.1,24.6,29.94,WSW,248,5.9,11.5,41,0.00,OVC,SCT,0.00,0.0,WeatherDisplay:10.37,2013-01-16 17:55:00,
2013-01-16 12:00:00,47.3,24.2,29.94,WNW,292,4.9,9.2,40,0.00,OVC,SCT,0.00,0.0,WeatherDisplay:10.37,2013-01-16 18:00:00,
2013-01-16 12:05:00,47.7,24.5,29.94,North,0,3.8,6.9,40,0.00,OVC,SCT,0.00,0.0,WeatherDisplay:10.37,2013-01-16 18:05:00,
2013-01-16 12:10:00,47.8,24.7,29.91,North,0,4.9,8.1,40,0.00,OVC,SCT,0.00,0.0,WeatherDisplay:10.37,2013-01-16 18:10:00,
2013-01-16 12:15:00,48.0,24.8,29.91,NNE,22,4.7,9.2,40,0.00,OVC,SCT,0.00,0.0,WeatherDisplay:10.37,2013-01-16 18:15:00,
2013-01-16 12:20:00,48.0,24.2,29.91,NNW,338,5.9,10.4,39,0.00,OVC,SCT,0.00,0.0,WeatherDisplay:10.37,2013-01-16 18:20:00,
2013-01-16 12:25:00,48.0,24.2,29.94,West,270,4.9,5.8,39,0.00,OVC,SCT,0.00,0.0,WeatherDisplay:10.37,2013-01-16 18:25:00,
2013-01-16 12:30:00,48.2,24.4,29.94,NNW,338,4.7,6.9,39,0.00,OVC,SCT,0.00,0.0,WeatherDisplay:10.37,2013-01-16 18:30:00,
2013-01-16 12:35:00,48.7,24.9,29.94,NW,315,5.4,5.8,39,0.00,OVC,SCT,0.00,0.0,WeatherDisplay:10.37,2013-01-16 18:35:00,
2013-01-16 12:40:00,49.3,25.3,29.94,NNW,338,4.3,5.8,39,0.00,OVC,SCT,0.00,0.0,WeatherDisplay:10.37,2013-01-16 18:40:00,
2013-01-16 12:45:00,49.1,24.6,29.94,NNW,338,5.6,6.9,38,0.00,OVC,SCT,0.00,0.0,WeatherDisplay:10.37,2013-01-16 18:45:00,
2013-01-16 12:50:00,48.7,24.2,29.94,NW,315,5.9,10.4,38,0.00,OVC,SCT,0.00,0.0,WeatherDisplay:10.37,2013-01-16 18:50:00,
2013-01-16 12:55:00,49.1,24.6,29.94,SSW,202,5.9,6.9,38,0.00,OVC,SCT,0.00,0.0,WeatherDisplay:10.37,2013-01-16 18:55:00,
2013-01-16 13:00:00,48.9,24.4,29.94,WNW,292,6.2,8.1,38,0.00,OVC,SCT,0.00,0.0,WeatherDisplay:10.37,2013-01-16 19:00:00,
2013-01-16 13:05:00,49.3,24.7,29.94,WNW,292,3.1,5.8,38,0.00,OVC,SCT,0.00,0.0,WeatherDisplay:10.37,2013-01-16 19:05:00,
2013-01-16 13:10:00,49.5,24.9,29.94,West,270,5.9,9.2,38,0.00,OVC,SCT,0.00,0.0,WeatherDisplay:10.37,2013-01-16 19:10:00,
2013-01-16 13:15:00,49.5,24.9,29.94,West,270,6.0,7.6,38,0.00,OVC,SCT,0.00,0.0,WeatherDisplay:10.37,2013-01-16 19:15:00,
2013-01-16 13:20:00,50.0,25.4,29.94,WNW,292,3.8,6.9,38,0.00,OVC,SCT,0.00,0.0,WeatherDisplay:10.37,2013-01-16 19:20:00,
2013-01-16 13:25:00,49.6,25.0,29.91,WSW,248,6.9,10.4,38,0.00,OVC,SCT,0.00,0.0,WeatherDisplay:10.37,2013-01-16 19:25:00,
2013-01-16 13:31:00,50.0,25.4,29.91,NW,315,4.3,7.1,38,0.00,OVC,SCT,0.00,0.0,WeatherDisplay:10.37,2013-01-16 19:31:00,
2013-01-16 13:36:00,50.4,25.7,29.91,WNW,292,5.9,6.9,38,0.00,OVC,SCT,0.00,0.0,WeatherDisplay:10.37,2013-01-16 19:36:00,
2013-01-16 13:41:00,50.0,24.7,29.91,WNW,292,7.4,10.4,37,0.00,OVC,SCT,0.00,0.0,WeatherDisplay:10.37,2013-01-16 19:41:00,
2013-01-16 13:46:00,50.5,25.2,29.91,North,0,5.4,8.1,37,0.00,OVC,SCT,0.00,0.0,WeatherDisplay:10.37,2013-01-16 19:46:00,
2013-01-16 13:51:00,50.7,25.4,29.91,WNW,292,4.9,6.9,37,0.00,OVC,SCT,0.00,0.0,WeatherDisplay:10.37,2013-01-16 19:51:00,
2013-01-16 13:56:00,50.7,25.4,29.91,West,270,5.9,8.1,37,0.00,OVC,SCT,0.00,0.0,WeatherDisplay:10.37,2013-01-16 19:56:00,
2013-01-16 14:01:00,50.5,25.2,29.91,NW,315,4.9,6.9,37,0.00,OVC,SCT,0.00,0.0,WeatherDisplay:10.37,2013-01-16 20:01:00,
2013-01-16 14:06:00,50.9,25.5,29.91,WSW,248,4.3,10.4,37,0.00,OVC,SCT,0.00,0.0,WeatherDisplay:10.37,2013-01-16 20:06:00,
2013-01-16 14:11:00,51.1,25.7,29.91,WSW,248,4.7,7.1,37,0.00,OVC,SCT,0.00,0.0,WeatherDisplay:10.37,2013-01-16 20:11:00,
2013-01-16 14:16:00,51.4,26.0,29.91,West,270,3.8,6.9,37,0.00,OVC,SCT,0.00,0.0,WeatherDisplay:10.37,2013-01-16 20:16:00,
2013-01-16 14:21:00,50.7,25.4,29.91,WNW,292,7.6,10.9,37,0.00,OVC,SCT,0.00,0.0,WeatherDisplay:10.37,2013-01-16 20:21:00,
2013-01-16 14:26:00,51.3,25.8,29.94,WSW,248,6.2,8.1,37,0.00,OVC,SCT,0.00,0.0,WeatherDisplay:10.37,2013-01-16 20:26:00,
2013-01-16 14:31:00,51.4,26.0,29.94,West,270,4.5,6.9,37,0.00,OVC,SCT,0.00,0.0,WeatherDisplay:10.37,2013-01-16 20:31:00,
2013-01-16 14:36:00,51.8,26.3,29.94,WSW,248,4.7,6.9,37,0.00,OVC,SCT,0.00,0.0,WeatherDisplay:10.37,2013-01-16 20:36:00,
2013-01-16 14:41:00,52.0,25.8,29.94,WSW,248,4.5,5.8,36,0.00,OVC,SCT,0.00,0.0,WeatherDisplay:10.37,2013-01-16 20:41:00,
2013-01-16 14:46:00,52.2,26.0,29.94,WSW,248,4.0,4.6,36,0.00,OVC,SCT,0.00,0.0,WeatherDisplay:10.37,2013-01-16 20:46:00,
2013-01-16 14:51:00,52.3,26.1,29.94,West,270,3.8,4.6,36,0.00,OVC,SCT,0.00,0.0,WeatherDisplay:10.37,2013-01-16 20:51:00,
2013-01-16 14:56:00,52.3,26.1,29.94,WSW,248,4.9,9.2,36,0.00,OVC,SCT,0.00,0.0,WeatherDisplay:10.37,2013-01-16 20:56:00,
2013-01-16 15:01:00,52.3,26.1,29.94,North,0,5.6,6.9,36,0.00,OVC,SCT,0.00,0.0,WeatherDisplay:10.37,2013-01-16 21:01:00,
2013-01-16 15:07:00,52.3,26.1,29.94,NNW,338,4.3,6.9,36,0.00,OVC,SCT,0.00,0.0,WeatherDisplay:10.37,2013-01-16 21:07:00,
2013-01-16 15:12:00,52.7,26.5,29.94,WNW,292,3.8,5.8,36,0.00,OVC,SCT,0.00,0.0,WeatherDisplay:10.37,2013-01-16 21:12:00,
2013-01-16 15:17:00,52.7,26.5,29.94,WNW,292,4.5,6.4,36,0.00,OVC,SCT,0.00,0.0,WeatherDisplay:10.37,2013-01-16 21:17:00,
2013-01-16 15:22:00,53.1,26.8,29.94,WNW,292,3.8,6.0,36,0.00,OVC,SCT,0.00,0.0,WeatherDisplay:10.37,2013-01-16 21:22:00,
2013-01-16 15:27:00,52.9,25.9,29.94,West,270,3.8,4.7,35,0.00,OVC,SCT,0.00,0.0,WeatherDisplay:10.37,2013-01-16 21:27:00,
2013-01-16 15:32:00,52.9,26.6,29.94,West,270,4.3,4.6,36,0.00,OVC,SCT,0.00,0.0,WeatherDisplay:10.37,2013-01-16 21:32:00,
2013-01-16 15:37:00,52.9,26.6,29.94,NNW,338,3.6,5.8,36,0.00,OVC,SCT,0.00,0.0,WeatherDisplay:10.37,2013-01-16 21:37:00,
2013-01-16 15:42:00,53.1,26.1,29.94,WSW,248,3.3,6.9,35,0.00,OVC,SCT,0.00,0.0,WeatherDisplay:10.37,2013-01-16 21:42:00,
2013-01-16 15:47:00,53.1,26.1,29.94,WNW,292,3.6,5.8,35,0.00,OVC,SCT,0.00,0.0,WeatherDisplay:10.37,2013-01-16 21:47:00,
2013-01-16 15:52:00,53.1,24.7,29.94,NNW,338,4.0,5.8,33,0.00,OVC,SCT,0.00,0.0,WeatherDisplay:10.37,2013-01-16 21:52:00,
2013-01-16 15:57:00,53.2,24.8,29.94,West,270,3.8,3.8,33,0.00,OVC,SCT,0.00,0.0,WeatherDisplay:10.37,2013-01-16 21:57:00,
2013-01-16 16:02:00,53.1,23.9,29.94,WNW,292,3.3,6.9,32,0.00,OVC,SCT,0.00,0.0,WeatherDisplay:10.37,2013-01-16 22:02:00,
2013-01-16 16:07:00,53.1,23.9,29.91,North,0,4.9,5.8,32,0.00,OVC,SCT,0.00,0.0,WeatherDisplay:10.37,2013-01-16 22:07:00,
2013-01-16 16:12:00,52.9,23.0,29.91,NW,315,4.0,6.4,31,0.00,OVC,SCT,0.00,0.0,WeatherDisplay:10.37,2013-01-16 22:12:00,
2013-01-16 16:17:00,52.9,23.8,29.91,NNW,338,2.4,3.5,32,0.00,OVC,SCT,0.00,0.0,WeatherDisplay:10.37,2013-01-16 22:17:00,
2013-01-16 16:22:00,53.1,23.2,29.94,North,0,2.2,3.5,31,0.00,OVC,SCT,0.00,0.0,WeatherDisplay:10.37,2013-01-16 22:22:00,
2013-01-16 16:27:00,53.1,23.2,29.94,NW,315,2.9,2.9,31,0.00,OVC,SCT,0.00,0.0,WeatherDisplay:10.37,2013-01-16 22:27:00,
2013-01-16 16:33:00,52.9,23.0,29.94,NNE,22,2.4,3.5,31,0.00,OVC,SCT,0.00,0.0,WeatherDisplay:10.37,2013-01-16 22:33:00,
2013-01-16 16:38:00,52.7,22.9,29.94,NW,315,2.2,2.4,31,0.00,OVC,SCT,0.00,0.0,WeatherDisplay:10.37,2013-01-16 22:38:00,
2013-01-16 16:43:00,52.5,22.7,29.94,WSW,248,2.0,2.3,31,0.00,OVC,SCT,0.00,0.0,WeatherDisplay:10.37,2013-01-16 22:43:00,
2013-01-16 16:48:00,52.3,22.6,29.94,WNW,292,1.4,2.4,31,0.00,OVC,SCT,0.00,0.0,WeatherDisplay:10.37,2013-01-16 22:48:00,
2013-01-16 16:53:00,51.6,22.7,29.97,WNW,292,1.1,1.6,32,0.00,OVC,SCT,0.00,0.0,WeatherDisplay:10.37,2013-01-16 22:53:00,
2013-01-16 16:58:00,51.6,22.7,29.97,NNW,338,1.1,2.3,32,0.00,OVC,SCT,0.00,0.0,WeatherDisplay:10.37,2013-01-16 22:58:00,
2013-01-16 17:03:00,51.3,23.1,29.97,NNW,338,1.4,1.4,33,0.00,OVC,SCT,0.00,0.0,WeatherDisplay:10.37,2013-01-16 23:03:00,
2013-01-16 17:08:00,50.9,22.8,29.97,North,0,2.0,2.3,33,0.00,OVC,SCT,0.00,0.0,WeatherDisplay:10.37,2013-01-16 23:08:00,
2013-01-16 17:13:00,50.4,22.3,29.97,North,0,1.4,2.3,33,0.00,OVC,SCT,0.00,0.0,WeatherDisplay:10.37,2013-01-16 23:13:00,
2013-01-16 17:18:00,49.6,22.4,29.97,North,0,1.6,2.3,34,0.00,OVC,SCT,0.00,0.0,WeatherDisplay:10.37,2013-01-16 23:18:00,
2013-01-16 17:23:00,48.9,22.4,30.00,NNW,338,1.4,2.3,35,0.00,OVC,SCT,0.00,0.0,WeatherDisplay:10.37,2013-01-16 23:23:00,
2013-01-16 17:28:00,48.2,22.5,30.00,NNW,338,2.0,2.3,36,0.00,OVC,SCT,0.00,0.0,WeatherDisplay:10.37,2013-01-16 23:28:00,
2013-01-16 17:33:00,47.3,22.3,30.00,North,0,2.2,3.5,37,0.00,OVC,SCT,0.00,0.0,WeatherDisplay:10.37,2013-01-16 23:33:00,
2013-01-16 17:38:00,46.8,22.5,29.97,NNW,338,3.1,3.1,38,0.00,OVC,SCT,0.00,0.0,WeatherDisplay:10.37,2013-01-16 23:38:00,
2013-01-16 17:43:00,46.4,22.1,29.97,NNE,22,2.9,4.6,38,0.00,OVC,SCT,0.00,0.0,WeatherDisplay:10.37,2013-01-16 23:43:00,
2013-01-16 17:48:00,45.9,22.3,29.97,North,0,2.0,3.6,39,0.00,OVC,SCT,0.00,0.0,WeatherDisplay:10.37,2013-01-16 23:48:00,
2013-01-16 17:53:00,45.3,22.4,30.00,NNE,22,2.6,3.5,40,0.00,CLR,SCT,0.00,0.0,WeatherDisplay:10.37,2013-01-16 23:53:00,
2013-01-16 17:59:00,45.1,22.8,30.00,North,0,2.0,2.9,41,0.00,CLR,SCT,0.00,0.0,WeatherDisplay:10.37,2013-01-16 23:59:00,
2013-01-16 18:04:00,44.8,22.5,30.00,ENE,68,2.4,3.5,41,0.00,CLR,SCT,0.00,0.0,WeatherDisplay:10.37,2013-01-17 00:04:00,
2013-01-16 18:09:00,44.6,22.3,30.00,SSW,202,4.3,5.8,41,0.00,CLR,SCT,0.00,0.0,WeatherDisplay:10.37,2013-01-17 00:09:00,
2013-01-16 18:14:00,44.6,22.3,30.00,NNE,22,2.4,4.6,41,0.00,CLR,SCT,0.00,0.0,WeatherDisplay:10.37,2013-01-17 00:14:00,
2013-01-16 18:19:00,44.4,22.7,30.00,South,180,2.0,5.8,42,0.00,CLR,SCT,0.00,0.0,WeatherDisplay:10.37,2013-01-17 00:19:00,
2013-01-16 18:24:00,44.2,22.6,30.03,SSW,202,2.4,3.5,42,0.00,CLR,SCT,0.00,0.0,WeatherDisplay:10.37,2013-01-17 00:24:00,
2013-01-16 18:29:00,43.9,22.8,30.03,SSW,202,3.3,3.5,43,0.00,CLR,SCT,0.00,0.0,WeatherDisplay:10.37,2013-01-17 00:29:00,
2013-01-16 18:34:00,43.5,22.5,30.03,NE,45,2.6,4.6,43,0.00,CLR,SCT,0.00,0.0,WeatherDisplay:10.37,2013-01-17 00:34:00,
2013-01-16 18:39:00,43.5,23.0,30.06,NNW,338,2.6,5.4,44,0.00,CLR,SCT,0.00,0.0,WeatherDisplay:10.37,2013-01-17 00:39:00,
2013-01-16 18:44:00,43.2,23.2,30.06,NNW,338,3.1,3.5,45,0.00,CLR,SCT,0.00,0.0,WeatherDisplay:10.37,2013-01-17 00:44:00,
2013-01-16 18:49:00,42.8,23.4,30.06,ENE,68,3.3,5.4,46,0.00,CLR,SCT,0.00,0.0,WeatherDisplay:10.37,2013-01-17 00:49:00,
2013-01-16 18:55:00,42.4,23.6,30.06,NNW,338,2.2,4.6,47,0.00,CLR,SCT,0.00,0.0,WeatherDisplay:10.37,2013-01-17 00:55:00,
2013-01-16 19:00:00,42.3,23.9,30.06,North,0,3.1,4.0,48,0.00,CLR,SCT,0.00,0.0,WeatherDisplay:10.37,2013-01-17 01:00:00,
2013-01-16 19:05:00,42.1,23.8,30.06,NNE,22,3.6,6.9,48,0.00,CLR,SCT,0.00,0.0,WeatherDisplay:10.37,2013-01-17 01:05:00,
2013-01-16 19:10:00,41.7,23.9,30.06,North,0,2.2,6.9,49,0.00,CLR,SCT,0.00,0.0,WeatherDisplay:10.37,2013-01-17 01:10:00,
2013-01-16 19:15:00,41.7,23.9,30.06,SE,135,2.9,3.5,49,0.00,CLR,SCT,0.00,0.0,WeatherDisplay:10.37,2013-01-17 01:15:00,
2013-01-16 19:20:00,41.5,23.8,30.06,North,0,2.6,4.9,49,0.00,CLR,SCT,0.00,0.0,WeatherDisplay:10.37,2013-01-17 01:20:00,
2013-01-16 19:25:00,41.4,24.1,30.06,SW,225,2.9,4.6,50,0.00,CLR,SCT,0.00,0.0,WeatherDisplay:10.37,2013-01-17 01:25:00,
2013-01-16 19:30:00,41.2,23.9,30.06,NNW,338,3.8,5.4,50,0.00,CLR,SCT,0.00,0.0,WeatherDisplay:10.37,2013-01-17 01:30:00,
2013-01-16 19:35:00,41.2,23.9,30.06,WSW,248,4.0,5.8,50,0.00,CLR,SCT,0.00,0.0,WeatherDisplay:10.37,2013-01-17 01:35:00,
2013-01-16 19:40:00,41.0,23.8,30.09,NNW,338,3.8,4.6,50,0.00,CLR,SCT,0.00,0.0,WeatherDisplay:10.37,2013-01-17 01:40:00,
2013-01-16 19:45:00,40.8,24.1,30.09,NNE,22,1.6,6.9,51,0.00,CLR,SCT,0.00,0.0,WeatherDisplay:10.37,2013-01-17 01:45:00,
2013-01-16 19:50:00,40.5,23.7,30.09,WSW,248,2.6,3.5,51,0.00,CLR,SCT,0.00,0.0,WeatherDisplay:10.37,2013-01-17 01:50:00,
2013-01-16 19:55:00,40.5,24.2,30.09,NNE,22,2.9,4.3,52,0.00,CLR,SCT,0.00,0.0,WeatherDisplay:10.37,2013-01-17 01:55:00,
2013-01-16 20:00:00,40.3,24.0,30.09,South,180,3.6,4.6,52,0.00,CLR,SCT,0.00,0.0,WeatherDisplay:10.37,2013-01-17 02:00:00,
2013-01-16 20:05:00,40.1,23.9,30.09,East,90,2.6,3.5,52,0.00,CLR,SCT,0.00,0.0,WeatherDisplay:10.37,2013-01-17 02:05:00,
2013-01-16 20:10:00,39.9,24.2,30.09,SW,225,2.9,4.6,53,0.00,CLR,SCT,0.00,0.0,WeatherDisplay:10.37,2013-01-17 02:10:00,
2013-01-16 20:15:00,39.7,24.0,30.09,NNE,22,3.6,6.9,53,0.00,CLR,SCT,0.00,0.0,WeatherDisplay:10.37,2013-01-17 02:15:00,
2013-01-16 20:20:00,39.6,23.8,30.09,NNE,22,1.1,2.6,53,0.00,CLR,SCT,0.00,0.0,WeatherDisplay:10.37,2013-01-17 02:20:00,
2013-01-16 20:25:00,39.4,24.1,30.09,West,270,2.0,4.6,54,0.00,CLR,SCT,0.00,0.0,WeatherDisplay:10.37,2013-01-17 02:25:00,
2013-01-16 20:30:00,39.2,23.9,30.09,North,0,1.6,4.6,54,0.00,CLR,SCT,0.00,0.0,WeatherDisplay:10.37,2013-01-17 02:30:00,
2013-01-16 20:35:00,39.2,24.4,30.09,SSE,158,2.6,2.6,55,0.00,CLR,SCT,0.00,0.0,WeatherDisplay:10.37,2013-01-17 02:35:00,
2013-01-16 20:40:00,39.2,24.4,30.12,NNW,338,3.1,3.6,55,0.00,CLR,SCT,0.00,0.0,WeatherDisplay:10.37,2013-01-17 02:40:00,
2013-01-16 20:45:00,39.2,24.8,30.12,West,270,2.6,4.6,56,0.00,CLR,SCT,0.00,0.0,WeatherDisplay:10.37,2013-01-17 02:45:00,
2013-01-16 20:50:00,39.0,24.6,30.12,ENE,68,3.6,5.9,56,0.00,CLR,SCT,0.00,0.0,WeatherDisplay:10.37,2013-01-17 02:50:00,
2013-01-16 20:56:00,39.0,24.6,30.12,North,0,2.6,3.5,56,0.00,CLR,SCT,0.00,0.0,WeatherDisplay:10.37,2013-01-17 02:56:00,
2013-01-16 21:01:00,38.8,24.5,30.12,North,0,3.1,4.7,56,0.00,CLR,SCT,0.00,0.0,WeatherDisplay:10.37,2013-01-17 03:01:00,
2013-01-16 21:06:00,38.7,24.7,30.12,NNE,22,3.3,6.0,57,0.00,CLR,SCT,0.00,0.0,WeatherDisplay:10.37,2013-01-17 03:06:00,
2013-01-16 21:11:00,38.5,24.6,30.12,NW,315,3.6,5.8,57,0.00,CLR,SCT,0.00,0.0,WeatherDisplay:10.37,2013-01-17 03:11:00,
2013-01-16 21:16:00,38.5,25.0,30.12,WSW,248,3.1,5.8,58,0.00,CLR,SCT,0.00,0.0,WeatherDisplay:10.37,2013-01-17 03:16:00,
2013-01-16 21:21:00,38.1,24.6,30.12,NNW,338,2.6,4.6,58,0.00,CLR,SCT,0.00,0.0,WeatherDisplay:10.37,2013-01-17 03:21:00,
2013-01-16 21:26:00,37.9,24.5,30.12,SW,225,2.0,3.5,58,0.00,CLR,SCT,0.00,0.0,WeatherDisplay:10.37,2013-01-17 03:26:00,
2013-01-16 21:31:00,37.6,24.5,30.12,North,0,2.4,2.6,59,0.00,CLR,SCT,0.00,0.0,WeatherDisplay:10.37,2013-01-17 03:31:00,
2013-01-16 21:36:00,37.6,24.9,30.12,North,0,3.3,3.6,60,0.00,CLR,SCT,0.00,0.0,WeatherDisplay:10.37,2013-01-17 03:36:00,
2013-01-16 21:41:00,37.4,25.2,30.12,NNE,22,3.3,4.9,61,0.00,CLR,SCT,0.00,0.0,WeatherDisplay:10.37,2013-01-17 03:41:00,
2013-01-16 21:47:00,37.0,25.2,30.12,North,0,3.1,4.3,62,0.00,CLR,SCT,0.00,0.0,WeatherDisplay:10.37,2013-01-17 03:47:00,
2013-01-16 21:52:00,36.9,25.8,30.12,WNW,292,3.8,5.8,64,0.00,CLR,SCT,0.00,0.0,WeatherDisplay:10.37,2013-01-17 03:52:00,
2013-01-16 21:57:00,36.9,25.8,30.12,WNW,292,2.6,5.8,64,0.00,CLR,SCT,0.00,0.0,WeatherDisplay:10.37,2013-01-17 03:57:00,
2013-01-16 22:02:00,36.9,26.2,30.12,ESE,112,3.3,10.4,65,0.00,CLR,SCT,0.00,0.0,WeatherDisplay:10.37,2013-01-17 04:02:00,
2013-01-16 22:07:00,36.9,26.6,30.12,North,0,3.3,5.6,66,0.00,CLR,SCT,0.00,0.0,WeatherDisplay:10.37,2013-01-17 04:07:00,
2013-01-16 22:12:00,36.7,26.0,30.12,NNE,22,2.6,3.8,65,0.00,CLR,SCT,0.00,0.0,WeatherDisplay:10.37,2013-01-17 04:12:00,
2013-01-16 22:17:00,36.7,26.4,30.12,NNE,22,2.2,4.6,66,0.00,CLR,SCT,0.00,0.0,WeatherDisplay:10.37,2013-01-17 04:17:00,
2013-01-16 22:22:00,36.7,26.4,30.12,NNW,338,3.1,3.8,66,0.00,CLR,SCT,0.00,0.0,WeatherDisplay:10.37,2013-01-17 04:22:00,
2013-01-16 22:27:00,36.5,26.6,30.12,North,0,2.9,4.3,67,0.00,CLR,SCT,0.00,0.0,WeatherDisplay:10.37,2013-01-17 04:27:00,
2013-01-16 22:32:00,36.5,26.6,30.12,NNW,338,3.3,4.6,67,0.00,CLR,SCT,0.00,0.0,WeatherDisplay:10.37,2013-01-17 04:32:00,
2013-01-16 22:37:00,36.3,26.4,30.15,NNW,338,4.0,8.1,67,0.00,CLR,SCT,0.00,0.0,WeatherDisplay:10.37,2013-01-17 04:37:00,
2013-01-16 22:42:00,36.3,26.8,30.15,NW,315,4.5,8.1,68,0.00,CLR,SCT,0.00,0.0,WeatherDisplay:10.37,2013-01-17 04:42:00,
2013-01-16 22:47:00,36.1,26.6,30.15,NNE,22,4.7,5.8,68,0.00,CLR,SCT,0.00,0.0,WeatherDisplay:10.37,2013-01-17 04:47:00,
2013-01-16 22:52:00,36.0,26.4,30.18,ENE,68,3.8,5.8,68,0.00,CLR,SCT,0.00,0.0,WeatherDisplay:10.37,2013-01-17 04:52:00,
2013-01-16 22:57:00,35.8,26.6,30.18,North,0,3.8,4.6,69,0.00,CLR,SCT,0.00,0.0,WeatherDisplay:10.37,2013-01-17 04:57:00,
2013-01-16 23:00:00,35.6,26.4,30.18,NE,45,3.3,4.6,69,0.00,CLR,SCT,0.00,0.0,WeatherDisplay:10.37,2013-01-17 05:00:00,
2013-01-16 23:01:00,35.6,26.4,30.18,NNW,338,3.3,5.4,69,0.00,CLR,SCT,0.00,0.0,WeatherDisplay:10.37,2013-01-17 05:01:00,
2013-01-16 23:06:00,35.2,26.4,30.18,North,0,3.3,5.8,70,0.00,CLR,SCT,0.00,0.0,WeatherDisplay:10.37,2013-01-17 05:06:00,
2013-01-16 23:11:00,34.9,26.1,30.18,SSE,158,4.3,5.8,70,0.00,CLR,SCT,0.00,0.0,WeatherDisplay:10.37,2013-01-17 05:11:00,
2013-01-16 23:16:00,34.5,25.7,30.18,North,0,4.0,4.0,70,0.00,CLR,SCT,0.00,0.0,WeatherDisplay:10.37,2013-01-17 05:16:00,
2013-01-16 23:21:00,34.2,25.4,30.18,NNE,22,3.1,8.1,70,0.00,CLR,SCT,0.00,0.0,WeatherDisplay:10.37,2013-01-17 05:21:00,
2013-01-16 23:27:00,33.8,25.0,30.18,NNW,338,5.4,7.1,70,0.00,CLR,SCT,0.00,0.0,WeatherDisplay:10.37,2013-01-17 05:27:00,
2013-01-16 23:32:00,33.3,24.5,30.18,SSW,202,5.6,6.9,70,0.00,CLR,SCT,0.00,0.0,WeatherDisplay:10.37,2013-01-17 05:32:00,
2013-01-16 23:37:00,33.1,24.7,30.18,ENE,68,3.3,5.8,71,0.00,CLR,SCT,0.00,0.0,WeatherDisplay:10.37,2013-01-17 05:37:00,
2013-01-16 23:42:00,32.7,24.7,30.18,South,180,3.8,5.9,72,0.00,CLR,SCT,0.00,0.0,WeatherDisplay:10.37,2013-01-17 05:42:00,
2013-01-16 23:47:00,32.5,24.5,30.18,NNW,338,4.9,6.9,72,0.00,CLR,SCT,0.00,0.0,WeatherDisplay:10.37,2013-01-17 05:47:00,
2013-01-16 23:52:00,32.2,24.5,30.18,NNW,338,3.6,4.6,73,0.00,CLR,SCT,0.00,0.0,WeatherDisplay:10.37,2013-01-17 05:52:00,
2013-01-16 23:57:00,32.0,24.3,30.18,WSW,248,4.0,5.8,73,0.00,CLR,SCT,0.00,0.0,WeatherDisplay:10.37,2013-01-17 05:57:00,